Location: Pinon Hills
(34.4429°N, 117.6403°W)
Time: 02:22:12
(UTC-08:00)

Amateur Radio Satellites - All Passes

Search period start: 27 January 2015 01:52
Search period end: 28 January 2015 01:52
Location: Pinon Hills, 34.4429°N, 117.6403°W

Satellite Date Start Highest point End Downlink Frequencies (MHz)
Time Altitude Azimuth
STARS 27 Jan 01:56:10 02:00:35 71° 75° (ENE) 02:05:01 437.465
KKS-1 27 Jan 01:56:46 02:01:14 73° 258° (WSW) 02:05:44 437.445
AIST 2 27 Jan 01:56:57 01:59:04 14° 110° (ESE) 02:01:24 435.215
AUBIESAT-1 27 Jan 02:03:09 02:07:16 58° 72° (ENE) 02:11:04 437.475
HORYU 2 27 Jan 02:06:28 02:07:55 12° 91° (E) 02:09:38 437.375
BEESAT 2 27 Jan 02:12:20 02:16:20 56° 116° (ESE) 02:20:25 435.950
O/OREOS (USA 219) 27 Jan 02:18:57 02:23:29 59° 68° (ENE) 02:28:01 437.305
Oscar 19 27 Jan 02:26:42 02:30:46 23° 291° (WNW) 02:34:41 437.125/150
BEESAT 3 27 Jan 02:28:59 02:33:04 78° 299° (WNW) 02:37:13 437.485
ITAMSAT 1 27 Jan 02:36:13 02:41:20 56° 286° (WNW) 02:46:25 435.822/435.867
CUSAT 1 27 Jan 03:03:12 03:09:29 28° 87° (E) 03:16:26 437.405
M-CUBED/EXP-1 PRIME 27 Jan 03:03:31 03:06:53 22° 259° (W) 03:09:58 437.505
PCSat 27 Jan 03:06:12 03:09:01 15° 106° (ESE) 03:12:08 145.827
MOZHAYETS 4 27 Jan 03:18:28 03:22:22 29° 72° (ENE) 03:26:21
Gurwin Techsat 1B 27 Jan 03:19:01 03:23:44 32° 289° (WNW) 03:28:23 435.225
AO-7 27 Jan 03:29:25 03:37:16 45° 100° (E) 03:45:09 29.400- 29.500
AIST 2 27 Jan 03:33:18 03:37:21 43° 303° (WNW) 03:41:28 435.215
GONETS M04 27 Jan 03:34:00 03:38:44 14° 297° (WNW) 03:42:49
HORYU 2 27 Jan 03:40:38 03:44:57 50° 286° (WNW) 03:49:14 437.375
BEESAT 2 27 Jan 03:52:59 03:54:59 13° 313° (NW) 03:56:49 435.950
O/OREOS (USA 219) 27 Jan 04:01:41 04:02:27 10° 261° (W) 04:02:53 437.305
DANDE 27 Jan 04:02:13 04:09:49 65° 94° (E) 04:18:25 436.750
ISS 27 Jan 04:07:10 04:08:52 13° 28° (NNE) 04:10:38 145.825
JAS-2 27 Jan 04:25:45 04:31:24 63° 101° (ESE) 04:37:47 435.910
PRISM 27 Jan 04:32:23 04:34:58 17° 69° (ENE) 04:37:42 437.425
RS-15 27 Jan 04:33:12 04:43:56 66° 114° (ESE) 04:54:45 29.354- 29.394
CUSAT 1 27 Jan 04:44:18 04:52:03 59° 283° (WNW) 05:00:25 437.405
PCSat 27 Jan 04:46:40 04:52:00 59° 298° (WNW) 04:57:23 145.827
MOZHAYETS 4 27 Jan 04:55:58 04:59:38 22° 266° (W) 05:03:10
CUBESAT XI-V 27 Jan 05:04:07 05:07:58 27° 71° (ENE) 05:11:53 437.345
AO-7 27 Jan 05:22:29 05:29:56 36° 296° (WNW) 05:37:11 29.400- 29.500
ISS 27 Jan 05:42:27 05:45:45 74° 225° (SW) 05:49:02 145.825
YUBILEINY 27 Jan 05:44:53 05:52:11 30° 71° (ENE) 05:59:44 435.215
DANDE 27 Jan 05:47:22 05:54:02 27° 293° (WNW) 06:00:53 436.750
STRAND 1 27 Jan 05:50:14 05:55:16 67° 75° (ENE) 06:00:21 437.568
Cubesat XI-IV 27 Jan 06:00:05 06:05:26 65° 101° (ESE) 06:10:47 437.490
PRISM 27 Jan 06:06:36 06:10:18 31° 263° (W) 06:13:57 437.425
JAS-2 27 Jan 06:12:43 06:16:15 16° 292° (WNW) 06:19:43 435.910
CUTE-I 27 Jan 06:20:46 06:26:10 81° 284° (WNW) 06:31:32 437.470
CUSAT 1 27 Jan 06:35:36 06:37:08 10° 303° (WNW) 06:37:54 437.405
CUBESAT XI-V 27 Jan 06:41:42 06:45:25 23° 266° (W) 06:49:02 437.345
RS-15 27 Jan 06:47:27 06:57:08 34° 316° (NW) 07:06:43 29.354- 29.394
STRAND 1 27 Jan 07:33:21 07:35:02 11° 271° (W) 07:36:21 437.568
BRITE-PL 27 Jan 07:37:02 07:41:34 25° 92° (E) 07:46:05 437.365/2234.400
YUBILEINY 27 Jan 07:40:57 07:49:24 52° 269° (W) 07:57:47 435.215
CUTE 1.7 + AOD 2 27 Jan 07:42:01 07:44:07 14° 91° (E) 07:46:27 437.475
Cubesat XI-IV 27 Jan 07:42:11 07:45:03 14° 295° (WNW) 07:47:39 437.490
GOMX 1 27 Jan 07:44:34 07:48:19 20° 91° (E) 07:52:09 467.674
HO-68 27 Jan 07:49:33 07:55:30 29° 95° (E) 08:01:38 435.675
VERMONT LUNAR 27 Jan 07:53:20 07:56:06 23° 145° (SE) 07:58:56 437.305
DOVE 4 27 Jan 08:07:11 08:11:10 23° 92° (E) 08:15:09 437.250
CINEMA 3 27 Jan 08:12:19 08:14:13 13° 88° (E) 08:16:22 145.822/145.860
SEEDS 27 Jan 08:14:34 08:18:14 29° 96° (E) 08:21:55 437.485
PHONESAT 2.4 27 Jan 08:38:36 08:41:45 29° 147° (SSE) 08:44:57 2401.200-2431.200
UNISAT 6 27 Jan 08:42:43 08:45:39 17° 69° (ENE) 08:48:45 437.425
COMPASS 1 27 Jan 08:44:01 08:48:07 57° 100° (E) 08:52:13 437.405
UWE-3 27 Jan 08:47:11 08:49:19 14° 90° (E) 08:51:38 435.000/436.395/437.385
CANX-2 27 Jan 08:51:37 08:55:50 69° 283° (WNW) 09:00:00 2200.000
QB50P1 27 Jan 08:53:05 08:53:57 11° 67° (ENE) 08:55:05 145.935-145.965
POLYITAN 1 27 Jan 09:04:39 09:07:07 16° 69° (ENE) 09:09:47 437.675
Oscar 11 27 Jan 09:09:42 09:13:50 45° 98° (E) 09:17:58 145.826/435.025
RS-15 27 Jan 09:10:50 09:14:35 12° 349° (N) 09:18:05 29.354- 29.394
AAUSAT CUBESAT 2 27 Jan 09:12:01 09:16:10 73° 283° (WNW) 09:20:17 437.432
BRITE-PL 27 Jan 09:14:56 09:20:10 38° 288° (WNW) 09:25:08 437.365/2234.400
BUGSAT 1 27 Jan 09:15:07 09:17:13 14° 69° (ENE) 09:19:33 437.445
CUTE 1.7 + AOD 2 27 Jan 09:16:21 09:20:18 38° 286° (WNW) 09:24:10 437.475
ANTELSAT 27 Jan 09:16:55 09:21:17 40° 73° (ENE) 09:25:43 437.575/2403.000
DELFI C3 27 Jan 09:19:50 09:23:45 47° 99° (E) 09:27:39 145.870
GOMX 1 27 Jan 09:21:32 09:26:42 44° 287° (WNW) 09:31:35 467.674
SO-50 27 Jan 09:22:02 09:25:04 19° 110° (ESE) 09:28:20 436.795
POPSAT HIP 1 27 Jan 09:24:45 09:28:15 26° 71° (ENE) 09:31:52 437.405
TIGRISAT 27 Jan 09:25:49 09:30:20 49° 74° (ENE) 09:34:54 435.000
DUCHIFAT 1 27 Jan 09:28:36 09:32:13 28° 72° (ENE) 09:35:55 145.980
VERMONT LUNAR 27 Jan 09:30:34 09:34:02 66° 339° (NNW) 09:37:32 437.305
HO-68 27 Jan 09:36:39 09:43:25 46° 291° (WNW) 09:50:07 435.675
CUBEBUG 2 27 Jan 09:37:02 09:41:36 66° 100° (E) 09:45:59 437.445
UKube-1 27 Jan 09:43:43 09:48:03 62° 101° (E) 09:52:22 .
DOVE 4 27 Jan 09:44:18 09:49:02 35° 289° (WNW) 09:53:30 437.250
CINEMA 3 27 Jan 09:47:10 09:51:54 54° 286° (WNW) 09:56:25 145.822/145.860
SEEDS 27 Jan 09:50:56 09:53:53 18° 290° (WNW) 09:56:42 437.485
ZACube-1 27 Jan 09:54:11 09:58:38 72° 101° (E) 10:02:55 437.345
DX 1 27 Jan 10:01:53 10:06:18 76° 284° (WNW) 10:10:40 434.975-435.025
NANOSAT C BR1 27 Jan 10:01:59 10:06:13 74° 77° (ENE) 10:10:31 145.865
FUNcube-1 27 Jan 10:06:54 10:11:21 81° 283° (WNW) 10:15:39 145.935
50 SAT 27 Jan 10:10:20 10:14:09 40° 98° (E) 10:17:56 437.505
ESTCUBE 1 27 Jan 10:12:57 10:16:11 20° 94° (E) 10:19:33 437.505/2401.250
HUMSAT D 27 Jan 10:14:03 10:18:16 64° 100° (E) 10:22:24 437.325/437.525
QB50P2 27 Jan 10:15:01 10:19:17 74° 258° (WSW) 10:23:36 145.880/145.840
AISAT 27 Jan 10:16:08 10:20:34 54° 100° (E) 10:24:58 437.250
PHONESAT 2.4 27 Jan 10:16:39 10:20:13 57° 341° (NNW) 10:23:48 2401.200-2431.200
UNISAT 6 27 Jan 10:17:40 10:22:10 42° 262° (W) 10:26:38 437.425
UWE-3 27 Jan 10:21:53 10:26:11 43° 286° (WNW) 10:30:19 435.000/436.395/437.385
QB50P1 27 Jan 10:25:14 10:29:25 56° 260° (W) 10:33:38 145.935-145.965
BEESAT 2 27 Jan 10:36:55 10:39:03 14° 47° (NE) 10:41:20 435.950
POLYITAN 1 27 Jan 10:38:47 10:42:47 37° 262° (W) 10:46:49 437.675
VELOX 1 27 Jan 10:45:31 10:50:00 70° 285° (WNW) 10:54:27 145.980
Oscar 11 27 Jan 10:47:33 10:49:41 13° 292° (WNW) 10:51:36 145.826/435.025
BUGSAT 1 27 Jan 10:48:41 10:52:27 37° 262° (W) 10:56:17 437.445
BEESAT 3 27 Jan 10:52:25 10:55:40 22° 52° (NE) 10:58:56 437.485
ANTELSAT 27 Jan 10:55:05 10:58:16 17° 268° (W) 11:01:17 437.575/2403.000
SPROUT 27 Jan 10:56:31 10:58:04 12° 90° (E) 10:59:52 437.525
DELFI C3 27 Jan 10:57:23 10:58:38 11° 292° (WNW) 10:59:38 145.870
AIST 1 27 Jan 10:59:02 11:03:07 50° 94° (E) 11:07:16
CUBEBUG 1 27 Jan 11:00:22 11:04:48 67° 101° (E) 11:09:13 437.445
POPSAT HIP 1 27 Jan 11:00:49 11:04:10 21° 266° (W) 11:07:25 437.405
SO-50 27 Jan 11:01:05 11:05:20 38° 305° (NW) 11:09:44 436.795
TIGRISAT 27 Jan 11:04:51 11:07:25 14° 269° (W) 11:09:43 435.000
DUCHIFAT 1 27 Jan 11:04:58 11:08:07 19° 266° (W) 11:11:10 145.980
VERMONT LUNAR 27 Jan 11:09:23 11:12:30 29° 355° (N) 11:15:40 437.305
CUBEBUG 2 27 Jan 11:17:12 11:17:45 10° 294° (WNW) 11:18:01 437.445
UKube-1 27 Jan 11:23:04 11:23:46 10° 294° (WNW) 11:24:11 .
RS-15 27 Jan 11:27:17 11:33:47 17° 26° (NNE) 11:40:54 29.354- 29.394
TISAT 1 27 Jan 11:38:53 11:42:54 38° 98° (E) 11:46:55 437.305
GONETS M04 27 Jan 11:46:44 11:54:41 40° 75° (ENE) 12:02:44
50 SAT 27 Jan 11:47:02 11:48:57 13° 292° (WNW) 11:50:40 437.505
ESTCUBE 1 27 Jan 11:49:07 11:53:09 31° 288° (WNW) 11:57:07 437.505/2401.250
AISAT 27 Jan 11:54:46 11:56:47 12° 293° (WNW) 11:58:33 437.250
PHONESAT 2.4 27 Jan 11:55:56 11:59:12 30° 358° (N) 12:02:28 2401.200-2431.200
AIST 2 27 Jan 11:58:32 12:02:33 40° 56° (ENE) 12:06:32 435.215
Oscar 19 27 Jan 12:00:14 12:04:56 36° 71° (ENE) 12:09:41 437.125/150
ITAMSAT 1 27 Jan 12:13:34 12:16:36 16° 66° (ENE) 12:19:51 435.822/435.867
BEESAT 2 27 Jan 12:13:35 12:17:38 51° 245° (WSW) 12:21:36 435.950
BEESAT 3 27 Jan 12:30:14 12:33:49 28° 248° (WSW) 12:37:17 437.485
SPROUT 27 Jan 12:30:18 12:34:30 47° 286° (WNW) 12:38:39 437.525
AIST 1 27 Jan 12:40:34 12:41:13 10° 290° (WNW) 12:41:34
SWISSCUBE 27 Jan 12:42:32 12:46:42 30° 96° (E) 12:50:56 437.505
VERMONT LUNAR 27 Jan 12:47:49 12:51:08 38° 13° (NNE) 12:54:28 437.305
Gurwin Techsat 1B 27 Jan 12:57:03 13:01:33 30° 70° (ENE) 13:06:09 435.225
BEESAT 27 Jan 12:58:30 13:03:01 41° 99° (E) 13:07:32 436.000
ITUPSAT 1 27 Jan 13:01:03 13:05:36 43° 99° (E) 13:10:11 437.325
TISAT 1 27 Jan 13:15:52 13:18:27 15° 291° (WNW) 13:20:51 437.305
PHONESAT 2.4 27 Jan 13:34:44 13:38:15 44° 15° (NNE) 13:41:47 2401.200-2431.200
PCSat 27 Jan 13:38:09 13:43:25 51° 60° (ENE) 13:48:41 145.827
AIST 2 27 Jan 13:38:19 13:40:53 15° 250° (WSW) 13:43:14 435.215
RS-15 27 Jan 13:38:29 13:49:37 56° 54° (NE) 14:01:18 29.354- 29.394
Oscar 19 27 Jan 13:40:18 13:44:24 23° 266° (W) 13:48:22 437.125/150
GONETS M04 27 Jan 13:43:39 13:51:30 38° 272° (W) 13:59:10
ITAMSAT 1 27 Jan 13:50:42 13:55:44 52° 260° (W) 14:00:47 435.822/435.867
STARS 27 Jan 13:50:59 13:53:52 17° 93° (E) 13:56:54 437.465
KKS-1 27 Jan 13:52:05 13:55:57 28° 96° (E) 13:59:51 437.445
CUSAT 1 27 Jan 13:52:09 13:53:50 11° 58° (ENE) 13:55:45 437.405
SWISSCUBE 27 Jan 14:20:38 14:24:28 23° 290° (WNW) 14:28:10 437.505
AO-7 27 Jan 14:24:23 14:32:08 46° 66° (ENE) 14:40:01 29.400- 29.500
VERMONT LUNAR 27 Jan 14:25:54 14:29:22 58° 208° (SSW) 14:32:51 437.305
HORYU 2 27 Jan 14:35:10 14:39:41 86° 256° (WSW) 14:44:12 437.375
Gurwin Techsat 1B 27 Jan 14:36:55 14:41:30 29° 264° (W) 14:46:01 435.225
BEESAT 27 Jan 14:37:24 14:40:35 18° 292° (WNW) 14:43:36 436.000
JAS-2 27 Jan 14:37:36 14:40:36 16° 68° (ENE) 14:43:45 435.910
ITUPSAT 1 27 Jan 14:40:05 14:43:12 17° 292° (WNW) 14:46:09 437.325
M-CUBED/EXP-1 PRIME 27 Jan 14:48:27 14:51:21 28° 102° (ESE) 14:54:22 437.505
DANDE 27 Jan 14:52:46 14:58:55 38° 71° (ENE) 15:03:38 436.750
PHONESAT 2.4 27 Jan 15:13:21 15:16:52 46° 210° (SSW) 15:20:23 2401.200-2431.200
PCSat 27 Jan 15:22:50 15:26:29 18° 254° (WSW) 15:29:53 145.827
AUBIESAT-1 27 Jan 15:22:55 15:26:15 84° 105° (ESE) 15:29:41 437.475
STARS 27 Jan 15:26:27 15:30:30 34° 287° (WNW) 15:34:28 437.465
KKS-1 27 Jan 15:28:59 15:32:29 22° 290° (WNW) 15:35:50 437.445
CUSAT 1 27 Jan 15:32:07 15:38:18 74° 264° (W) 15:42:49 437.405
RS-15 27 Jan 15:51:25 16:01:48 39° 252° (WSW) 16:12:16 29.354- 29.394
CUTE-I 27 Jan 16:02:42 16:04:53 13° 65° (ENE) 16:07:22 437.470
AO-7 27 Jan 16:17:31 16:25:03 36° 262° (W) 16:32:29 29.400- 29.500
JAS-2 27 Jan 16:19:50 16:25:28 55° 259° (W) 16:30:40 435.910
M-CUBED/EXP-1 PRIME 27 Jan 16:24:48 16:26:12 12° 294° (WNW) 16:27:27 437.505
O/OREOS (USA 219) 27 Jan 16:27:32 16:31:56 58° 292° (WNW) 16:36:23 437.305
DANDE 27 Jan 16:37:00 16:41:54 23° 276° (W) 16:45:43 436.750
MOZHAYETS 4 27 Jan 16:53:36 16:58:10 72° 284° (WNW) 17:02:42
JUGNU 27 Jan 17:14:10 17:17:08 14° 168° (SSE) 17:20:11 437.505
Cubesat XI-IV 27 Jan 17:18:35 17:23:52 75° 76° (ENE) 17:29:14 437.490
CUTE-I 27 Jan 17:39:09 17:44:26 70° 258° (WSW) 17:49:46 437.470
PRISM 27 Jan 17:52:33 17:56:32 44° 99° (E) 18:00:32 437.425
STRAND 1 27 Jan 18:04:49 18:09:17 30° 96° (E) 18:13:49 437.568
HO-68 27 Jan 18:16:50 18:20:32 16° 60° (ENE) 18:24:39 435.675
CUBESAT XI-V 27 Jan 18:40:53 18:45:35 72° 283° (WNW) 18:50:15 437.345
YUBILEINY 27 Jan 18:41:16 18:48:57 38° 88° (E) 18:56:48 435.215
BRITE-PL 27 Jan 18:44:54 18:48:13 19° 67° (ENE) 18:51:54 437.365/2234.400
GOMX 1 27 Jan 18:50:01 18:52:37 15° 66° (ENE) 18:55:32 467.674
JUGNU 27 Jan 19:01:22 19:05:29 19° 178° (S) 19:09:37 437.505
Cubesat XI-IV 27 Jan 19:03:32 19:04:39 10° 271° (W) 19:05:21 437.490
SEEDS 27 Jan 19:04:50 19:07:04 15° 69° (ENE) 19:09:31 437.485
DOVE 4 27 Jan 19:09:54 19:12:55 17° 67° (ENE) 19:16:15 437.250
PRISM 27 Jan 19:29:51 19:31:43 13° 292° (WNW) 19:33:24 437.425
COMPASS 1 27 Jan 19:32:35 19:36:01 25° 72° (ENE) 19:39:32 437.405
SO-50 27 Jan 19:35:27 19:40:23 71° 59° (ENE) 19:45:17 436.795
SRMSAT 27 Jan 19:38:35 19:42:24 18° 173° (S) 19:46:15 437.500
CANX-2 27 Jan 19:40:58 19:45:08 51° 76° (ENE) 19:49:20 2200.000
STRAND 1 27 Jan 19:44:05 19:48:24 27° 290° (WNW) 19:52:38 437.568
AAUSAT CUBESAT 2 27 Jan 19:59:33 20:03:35 46° 75° (ENE) 20:07:38 437.432
HO-68 27 Jan 20:00:19 20:07:30 87° 255° (WSW) 20:14:41 435.675
Oscar 11 27 Jan 20:01:37 20:05:01 23° 71° (ENE) 20:08:31 145.826/435.025
CUTE 1.7 + AOD 2 27 Jan 20:05:14 20:09:33 87° 256° (WSW) 20:13:52 437.475
DELFI C3 27 Jan 20:05:35 20:08:28 19° 71° (ENE) 20:11:27 145.870
BRITE-PL 27 Jan 20:21:41 20:26:21 44° 263° (W) 20:31:23 437.365/2234.400
GOMX 1 27 Jan 20:25:20 20:30:11 59° 261° (W) 20:35:24 467.674
CUBEBUG 2 27 Jan 20:31:34 20:35:53 37° 73° (ENE) 20:40:19 437.445
UKube-1 27 Jan 20:35:34 20:39:25 33° 72° (ENE) 20:43:20 .
YUBILEINY 27 Jan 20:37:41 20:45:44 40° 285° (WNW) 20:53:42 435.215
SEEDS 27 Jan 20:38:36 20:42:38 39° 262° (W) 20:46:38 437.485
CINEMA 3 27 Jan 20:44:30 20:49:22 89° 270° (W) 20:54:25 145.822/145.860
ISS 27 Jan 20:44:36 20:46:56 18° 129° (SE) 20:49:20 145.825
DOVE 4 27 Jan 20:45:28 20:50:15 50° 262° (W) 20:55:18 437.250
ZACube-1 27 Jan 20:46:34 20:50:46 37° 73° (ENE) 20:55:03 437.345
JUGNU 27 Jan 20:50:04 20:53:51 17° 188° (S) 20:57:36 437.505
DX 1 27 Jan 20:53:57 20:58:12 58° 75° (ENE) 21:02:30 434.975-435.025
50 SAT 27 Jan 20:55:27 20:58:03 17° 70° (ENE) 21:00:49 437.505
FUNcube-1 27 Jan 20:58:52 21:03:16 51° 75° (ENE) 21:07:46 145.935
HUMSAT D 27 Jan 21:02:52 21:06:36 29° 72° (ENE) 21:10:25 437.325/437.525
COMPASS 1 27 Jan 21:08:24 21:11:43 22° 266° (W) 21:14:57 437.405
ESTCUBE 1 27 Jan 21:10:59 21:12:46 13° 67° (ENE) 21:14:48 437.505/2401.250
AISAT 27 Jan 21:11:05 21:14:57 31° 72° (ENE) 21:18:56 437.250
UWE-3 27 Jan 21:14:44 21:19:24 85° 258° (WSW) 21:24:09 435.000/436.395/437.385
SO-50 27 Jan 21:18:55 21:20:28 11° 252° (WSW) 21:21:40 436.795
CANX-2 27 Jan 21:20:22 21:21:28 11° 270° (W) 21:22:16 2200.000
TIGRISAT 27 Jan 21:23:34 21:25:22 13° 90° (E) 21:27:24 435.000
SRMSAT 27 Jan 21:26:47 21:30:56 19° 183° (S) 21:35:03 437.500
Oscar 11 27 Jan 21:37:30 21:41:08 25° 265° (W) 21:44:42 145.826/435.025
AAUSAT CUBESAT 2 27 Jan 21:38:00 21:39:34 11° 270° (W) 21:40:52 437.432
VELOX 1 27 Jan 21:39:40 21:44:03 66° 75° (ENE) 21:48:29 145.980
DELFI C3 27 Jan 21:40:05 21:43:34 26° 264° (W) 21:47:01 145.870
NANOSAT C BR1 27 Jan 21:52:11 21:54:47 16° 92° (E) 21:57:33 145.865
CUBEBUG 1 27 Jan 21:53:28 21:57:21 34° 73° (ENE) 22:01:20 437.445
HO-68 27 Jan 21:53:34 21:56:17 12° 272° (W) 21:58:22 435.675
QB50P2 27 Jan 22:04:53 22:08:19 23° 95° (E) 22:11:49 145.880/145.840
CUBEBUG 2 27 Jan 22:09:23 22:12:45 19° 268° (W) 22:15:59 437.445
UKube-1 27 Jan 22:12:46 22:15:42 17° 267° (W) 22:18:30 .
UNISAT 6 27 Jan 22:13:33 22:17:54 53° 99° (E) 22:22:09 437.425
QB50P1 27 Jan 22:14:32 22:18:18 30° 96° (E) 22:22:06 145.935-145.965
ISS 27 Jan 22:20:17 22:23:17 32° 323° (NW) 22:26:18 145.825
ZACube-1 27 Jan 22:24:10 22:27:18 17° 268° (W) 22:30:18 437.345
POLYITAN 1 27 Jan 22:27:57 22:32:06 45° 99° (E) 22:36:13 437.675
TISAT 1 27 Jan 22:28:52 22:31:48 19° 70° (ENE) 22:34:53 437.305
50 SAT 27 Jan 22:29:16 22:32:58 31° 263° (W) 22:36:40 437.505
BUGSAT 1 27 Jan 22:34:26 22:38:27 39° 98° (E) 22:42:29 437.445
FUNcube-1 27 Jan 22:37:51 22:39:59 13° 270° (W) 22:41:51 145.935
HUMSAT D 27 Jan 22:39:13 22:42:28 20° 267° (W) 22:45:35 437.325/437.525
ESTCUBE 1 27 Jan 22:44:54 22:49:16 52° 260° (W) 22:53:39 437.505/2401.250
AIST 1 27 Jan 22:47:11 22:51:29 60° 266° (W) 22:55:46
AISAT 27 Jan 22:48:25 22:51:40 19° 266° (W) 22:54:49 437.250
POPSAT HIP 1 27 Jan 22:48:42 22:53:02 81° 102° (ESE) 22:57:19 437.405
ANTELSAT 27 Jan 22:49:25 22:53:48 56° 285° (WNW) 22:58:03 437.575/2403.000
DUCHIFAT 1 27 Jan 22:52:18 22:56:38 88° 101° (E) 23:00:55 145.980
TIGRISAT 27 Jan 22:58:13 23:02:29 45° 286° (WNW) 23:06:37 435.000
SRMSAT 27 Jan 23:16:30 23:19:26 14° 192° (SSW) 23:22:16 437.500
SPROUT 27 Jan 23:20:39 23:24:57 82° 79° (ENE) 23:29:18 437.525
NANOSAT C BR1 27 Jan 23:26:53 23:30:49 34° 287° (WNW) 23:34:40 145.865
CUBEBUG 1 27 Jan 23:31:03 23:33:53 16° 267° (W) 23:36:35 437.445
QB50P2 27 Jan 23:40:41 23:44:11 24° 289° (WNW) 23:47:36 145.880/145.840
SWISSCUBE 27 Jan 23:46:16 23:49:59 24° 70° (ENE) 23:53:49 437.505
QB50P1 27 Jan 23:50:55 23:54:01 19° 290° (WNW) 23:57:00 145.935-145.965
UNISAT 6 27 Jan 23:52:30 23:54:17 12° 293° (WNW) 23:55:47 437.425
BEESAT 28 Jan 00:01:52 00:06:02 32° 72° (ENE) 00:10:17 436.000
TISAT 1 28 Jan 00:03:44 00:07:28 29° 264° (W) 00:11:10 437.305
ITUPSAT 1 28 Jan 00:04:43 00:08:57 34° 72° (ENE) 00:13:16 437.325
POLYITAN 1 28 Jan 00:05:30 00:07:41 13° 292° (WNW) 00:09:40 437.675
BUGSAT 1 28 Jan 00:11:10 00:13:40 15° 291° (WNW) 00:15:59 437.445
Oscar 19 28 Jan 00:16:31 00:19:38 17° 92° (E) 00:22:59 437.125/150
GONETS M04 28 Jan 00:42:50 00:51:10 52° 91° (E) 00:59:34
STARS 28 Jan 00:46:57 00:47:50 11° 66° (ENE) 00:49:00 437.465
KKS-1 28 Jan 00:47:50 00:50:46 18° 69° (ENE) 00:53:51 437.445
O/OREOS (USA 219) 28 Jan 01:03:39 01:05:39 13° 56° (ENE) 01:07:52 437.305
Gurwin Techsat 1B 28 Jan 01:17:50 01:20:46 15° 91° (E) 01:23:59 435.225
SWISSCUBE 28 Jan 01:23:36 01:27:46 29° 264° (W) 01:31:52 437.505
M-CUBED/EXP-1 PRIME 28 Jan 01:34:28 01:37:56 27° 69° (ENE) 01:41:15 437.505
BEESAT 28 Jan 01:40:17 01:43:58 21° 266° (W) 01:47:32 436.000
ITUPSAT 1 28 Jan 01:43:22 01:46:58 20° 266° (W) 01:50:25 437.325
